Terminal Aerodrome Forecast
Issued by NWS Grand Forks, ND

Home | Current Version | Previous Version | Text Only | Print | Product List | Glossary Off
Versions: 1 2 3 4 5 6 7 8 9 10 11 12 13 14 15 16 17 18 19 20 21

000
FTUS43 KFGF 291133
TAFGFK
TAF
KGFK 291133Z 2912/3012 20007KT P6SM SCT250
      TEMPO 2912/2913 4SM BR
     FM291800 17010KT P6SM SCT250
     FM300100 18007KT P6SM SKC=

USA.gov is the U.S. government's official web portal to all federal, state and local government web resources and services.